Starlink 11143

operational
NORAD ID: 59953 Int'l Des: 2024-107 Owner: SPXS Country: US Constellation: starlink
LEOCIRCULAR

Über Starlink 11143

Beschreibung wird geladen...

Live-Position

3D-Globus wird geladen...

Nächste Überflüge

Höhenverlauf

Altitude vs Time

uPlot chart will show altitude changes over time

Zweizeiliger Elementsatz

1 59953U 24107J 25307.98431742 -.00000863 00000-0 -22674-5 0 9995
2 59953 53.1567 150.8628 0001073 77.8114 282.3024 15.69710814 82406
Epoch: 3. Nov. 2025 • Age: 18 hours

Aktueller Status

Höhe 378.8 km
Geschwindigkeit 7.68 km/s
Subsatellitenpunkt -52.98°S, 100.8°E
Startdatum 5. Juni 2024
Alter 1.4 years
Typ internet

Technische Details

Klassifizierung Payload
Masse 960.00 kg
Trockenmasse 910.00 kg
Gesamtmasse 960.00 kg
Länge 0.30 m
Durchmesser 4.10 m
Spannweite 29.00 m
Form Box + pan
Hersteller SPXS
Bus-Typ Starlink V2MD
Phasenstatus In Orbit
Besitzer/Staat SPXS/US

Große Konstellationen

Loading constellations...